Time,TemperatureF,DewpointF,PressureIn,WindDirection,WindDirectionDegrees,WindSpeedMPH,WindSpeedGustMPH,Humidity,HourlyPrecipIn,Conditions,Clouds,dailyrainin,SolarRadiationWatts/m^2,SoftwareType,DateUTC
2013-09-07 00:04:00,65.0,64.0,-100.00,NE,54,0.0,0.0,98,0.00,,,0.00,0.000000,,2013-09-07 04:04:00,
2013-09-07 00:43:00,64.0,63.0,-100.00,NNW,335,0.0,0.0,98,0.00,,,0.00,0.000000,,2013-09-07 04:43:00,
2013-09-07 00:54:00,64.0,63.0,-100.00,NNW,335,0.0,0.0,98,0.00,,,0.00,0.000000,,2013-09-07 04:54:00,
2013-09-07 01:03:00,64.0,63.0,-100.00,NNW,335,0.0,0.0,98,0.00,,,0.00,0.000000,,2013-09-07 05:03:00,
2013-09-07 01:42:00,64.0,64.0,-100.00,SE,145,0.0,0.0,99,0.00,,,0.00,0.000000,,2013-09-07 05:42:00,
2013-09-07 01:52:00,64.0,64.0,-100.00,SE,145,0.0,0.0,99,0.00,,,0.00,0.000000,,2013-09-07 05:52:00,
2013-09-07 02:02:00,64.0,64.0,-100.00,SE,145,0.0,0.0,99,0.00,,,0.00,0.000000,,2013-09-07 06:02:00,
2013-09-07 02:43:00,63.0,63.0,-100.00,SSE,161,0.0,0.0,99,0.00,,,0.00,0.000000,,2013-09-07 06:43:00,
2013-09-07 02:52:00,63.0,63.0,-100.00,SSE,161,0.0,0.0,99,0.00,,,0.00,0.000000,,2013-09-07 06:52:00,
2013-09-07 03:02:00,63.0,63.0,-100.00,SSE,161,0.0,0.0,99,0.00,,,0.00,0.000000,,2013-09-07 07:02:00,
2013-09-07 03:43:00,61.0,61.0,-100.00,SSW,194,0.0,0.0,99,0.00,,,0.00,0.000000,,2013-09-07 07:43:00,
2013-09-07 03:52:00,61.0,61.0,-100.00,SSW,194,0.0,0.0,99,0.00,,,0.00,0.000000,,2013-09-07 07:52:00,
2013-09-07 04:02:00,61.0,61.0,-100.00,SSW,194,0.0,0.0,99,0.00,,,0.00,0.000000,,2013-09-07 08:02:00,
2013-09-07 04:43:00,60.0,60.0,-100.00,WNW,286,0.0,0.0,100,0.00,,,0.00,0.000000,,2013-09-07 08:43:00,
2013-09-07 04:53:00,60.0,60.0,-100.00,WNW,286,0.0,0.0,100,0.00,,,0.00,0.000000,,2013-09-07 08:53:00,
2013-09-07 05:02:00,60.0,60.0,-100.00,WNW,286,0.0,0.0,100,0.00,,,0.00,0.000000,,2013-09-07 09:02:00,
2013-09-07 05:43:00,60.0,60.0,-100.00,WNW,289,0.0,0.0,100,0.00,,,0.00,0.000000,,2013-09-07 09:43:00,
2013-09-07 05:52:00,60.0,60.0,-100.00,WNW,289,0.0,0.0,100,0.00,,,0.00,0.000000,,2013-09-07 09:52:00,
2013-09-07 06:02:00,60.0,60.0,-100.00,WNW,289,0.0,0.0,100,0.00,,,0.00,0.000000,,2013-09-07 10:02:00,
2013-09-07 06:41:00,58.0,58.0,-100.00,East,99,0.0,0.0,100,0.00,,,0.00,0.000000,,2013-09-07 10:41:00,
2013-09-07 06:52:00,58.0,58.0,-100.00,East,99,0.0,0.0,100,0.00,,,0.00,0.000000,,2013-09-07 10:52:00,
2013-09-07 07:03:00,58.0,58.0,-100.00,East,99,0.0,0.0,100,0.00,,,0.00,0.000000,,2013-09-07 11:03:00,
2013-09-07 07:43:00,58.0,58.0,-100.00,SW,221,0.0,0.0,100,0.00,,,0.00,0.000000,,2013-09-07 11:43:00,
2013-09-07 07:53:00,58.0,58.0,-100.00,SW,221,0.0,0.0,100,0.00,,,0.00,0.000000,,2013-09-07 11:53:00,
2013-09-07 08:02:00,58.0,58.0,-100.00,SW,221,0.0,0.0,100,0.00,,,0.00,0.000000,,2013-09-07 12:02:00,
2013-09-07 08:42:00,60.0,60.0,-100.00,WNW,292,1.0,2.0,100,0.00,,,0.00,29.000000,,2013-09-07 12:42:00,
2013-09-07 08:52:00,60.0,60.0,-100.00,WNW,292,1.0,2.0,100,0.00,,,0.00,29.000000,,2013-09-07 12:52:00,
2013-09-07 09:02:00,60.0,60.0,-100.00,WNW,292,1.0,2.0,100,0.00,,,0.00,29.000000,,2013-09-07 13:02:00,
2013-09-07 09:42:00,62.0,62.0,-100.00,NW,309,0.0,2.0,100,0.00,,,0.00,88.000000,,2013-09-07 13:42:00,
2013-09-07 09:52:00,62.0,62.0,-100.00,NW,309,0.0,2.0,100,0.00,,,0.00,88.000000,,2013-09-07 13:52:00,
2013-09-07 10:02:00,62.0,62.0,-100.00,NW,309,0.0,2.0,100,0.00,,,0.00,88.000000,,2013-09-07 14:02:00,
2013-09-07 10:43:00,66.0,65.0,-100.00,East,100,0.0,2.0,98,0.00,,,0.00,185.000000,,2013-09-07 14:43:00,
2013-09-07 10:52:00,66.0,65.0,-100.00,East,100,0.0,2.0,98,0.00,,,0.00,185.000000,,2013-09-07 14:52:00,
2013-09-07 11:02:00,66.0,65.0,-100.00,East,100,0.0,2.0,98,0.00,,,0.00,185.000000,,2013-09-07 15:02:00,
2013-09-07 11:44:00,74.0,64.0,-100.00,SSW,199,1.0,2.0,72,0.00,,,0.00,536.000000,,2013-09-07 15:44:00,
2013-09-07 11:54:00,74.0,64.0,-100.00,SSW,199,1.0,2.0,72,0.00,,,0.00,536.000000,,2013-09-07 15:54:00,
2013-09-07 12:04:00,74.0,64.0,-100.00,SSW,199,1.0,2.0,72,0.00,,,0.00,536.000000,,2013-09-07 16:04:00,
2013-09-07 12:43:00,77.0,63.0,-100.00,SE,146,1.0,2.0,62,0.00,,,0.00,795.000000,,2013-09-07 16:43:00,
2013-09-07 12:53:00,77.0,63.0,-100.00,SE,146,1.0,2.0,62,0.00,,,0.00,795.000000,,2013-09-07 16:53:00,
2013-09-07 13:04:00,77.0,63.0,-100.00,SE,146,1.0,2.0,62,0.00,,,0.00,795.000000,,2013-09-07 17:04:00,
2013-09-07 13:43:00,80.0,65.0,-100.00,South,178,1.0,1.0,61,0.00,,,0.00,835.000000,,2013-09-07 17:43:00,
2013-09-07 13:52:00,80.0,65.0,-100.00,South,178,1.0,1.0,61,0.00,,,0.00,835.000000,,2013-09-07 17:52:00,
2013-09-07 14:01:00,80.0,65.0,-100.00,South,178,1.0,1.0,61,0.00,,,0.00,835.000000,,2013-09-07 18:01:00,
2013-09-07 14:43:00,83.0,67.0,-100.00,South,186,1.0,1.0,58,0.00,,,0.00,935.000000,,2013-09-07 18:43:00,
2013-09-07 14:52:00,83.0,67.0,-100.00,South,186,1.0,1.0,58,0.00,,,0.00,935.000000,,2013-09-07 18:52:00,
2013-09-07 15:02:00,83.0,67.0,-100.00,South,186,1.0,1.0,58,0.00,,,0.00,935.000000,,2013-09-07 19:02:00,
2013-09-07 15:42:00,83.0,68.0,-100.00,SW,235,1.0,2.0,60,0.00,,,0.00,869.000000,,2013-09-07 19:42:00,
2013-09-07 15:53:00,83.0,68.0,-100.00,SW,235,1.0,2.0,60,0.00,,,0.00,869.000000,,2013-09-07 19:53:00,
2013-09-07 16:02:00,83.0,68.0,-100.00,SW,235,1.0,2.0,60,0.00,,,0.00,869.000000,,2013-09-07 20:02:00,
2013-09-07 16:42:00,83.0,69.0,-100.00,South,172,2.0,6.0,63,0.00,,,0.00,570.000000,,2013-09-07 20:42:00,
2013-09-07 16:53:00,83.0,69.0,-100.00,South,172,2.0,6.0,63,0.00,,,0.00,570.000000,,2013-09-07 20:53:00,
2013-09-07 17:02:00,83.0,69.0,-100.00,South,172,2.0,6.0,63,0.00,,,0.00,570.000000,,2013-09-07 21:02:00,
2013-09-07 17:44:00,79.0,69.0,-100.00,SSW,192,1.0,5.0,71,0.00,,,0.00,346.000000,,2013-09-07 21:44:00,
2013-09-07 17:54:00,79.0,69.0,-100.00,SSW,192,1.0,5.0,71,0.00,,,0.00,346.000000,,2013-09-07 21:54:00,
2013-09-07 18:04:00,79.0,69.0,-100.00,SSW,192,1.0,5.0,71,0.00,,,0.00,346.000000,,2013-09-07 22:04:00,
2013-09-07 18:43:00,82.0,67.0,-100.00,SSW,201,1.0,4.0,61,0.00,,,-99.99,330.000000,,2013-09-07 22:43:00,
2013-09-07 18:53:00,82.0,67.0,-100.00,SSW,201,1.0,4.0,61,0.00,,,-99.99,330.000000,,2013-09-07 22:53:00,
2013-09-07 19:03:00,82.0,67.0,-100.00,SSW,201,1.0,4.0,61,0.00,,,-99.99,330.000000,,2013-09-07 23:03:00,
2013-09-07 19:42:00,77.0,68.0,-100.00,ESE,120,0.0,2.0,75,0.00,,,0.00,173.000000,,2013-09-07 23:42:00,
2013-09-07 19:53:00,77.0,68.0,-100.00,ESE,120,0.0,2.0,75,0.00,,,0.00,173.000000,,2013-09-07 23:53:00,
2013-09-07 20:02:00,77.0,68.0,-100.00,ESE,120,0.0,2.0,75,0.00,,,0.00,173.000000,,2013-09-08 00:02:00,
2013-09-07 20:43:00,69.0,67.0,-100.00,East,80,0.0,2.0,93,0.00,,,0.00,17.000000,,2013-09-08 00:43:00,
2013-09-07 20:52:00,69.0,67.0,-100.00,East,80,0.0,2.0,93,0.00,,,0.00,17.000000,,2013-09-08 00:52:00,
2013-09-07 21:01:00,69.0,67.0,-100.00,East,80,0.0,2.0,93,0.00,,,0.00,17.000000,,2013-09-08 01:01:00,
2013-09-07 21:42:00,67.0,66.0,-100.00,NNW,335,0.0,3.0,97,0.00,,,0.00,0.000000,,2013-09-08 01:42:00,
2013-09-07 21:52:00,67.0,66.0,-100.00,NNW,335,0.0,3.0,97,0.00,,,0.00,0.000000,,2013-09-08 01:52:00,
2013-09-07 22:02:00,67.0,66.0,-100.00,NNW,335,0.0,3.0,97,0.00,,,0.00,0.000000,,2013-09-08 02:02:00,
2013-09-07 22:43:00,65.0,64.0,-100.00,WSW,255,1.0,3.0,98,0.00,,,0.00,0.000000,,2013-09-08 02:43:00,
2013-09-07 22:52:00,65.0,64.0,-100.00,WSW,255,1.0,3.0,98,0.00,,,0.00,0.000000,,2013-09-08 02:52:00,
2013-09-07 23:03:00,65.0,64.0,-100.00,WSW,255,1.0,3.0,98,0.00,,,0.00,0.000000,,2013-09-08 03:03:00,
2013-09-07 23:44:00,65.0,64.0,-100.00,South,172,1.0,5.0,98,0.00,,,0.00,0.000000,,2013-09-08 03:44:00,
2013-09-07 23:54:00,65.0,64.0,-100.00,South,172,1.0,5.0,98,0.00,,,0.00,0.000000,,2013-09-08 03:54:00,